User: anonymous   Login
Location: Unspecified
(0.0000°N, 0.0000°E)
Time: 21:55:06
(UTC+00:00)
Language:

IRAS - Orbit

View from above orbital plane
View from above orbital plane
View from above satellite
View from above satellite

Ground track
Ground track

The orbit is defined by the following mean orbital elements,

1 13777U          26150.51384616 +.00000000 +00000-0 +16893-3 0 00006
2 13777  99.0537 332.3131 0018737  19.2829 340.9041 14.00911382    03
Epoch (UTC): 30 May 2026 12:19:56
Eccentricity: 0.0018737
inclination: 99.0537°
perigee height: 877 km
apogee height: 904 km
right ascension of ascending node: 332.3131°
argument of perigee: 19.2829°
revolutions per day: 14.00911382
mean anomaly at epoch: 340.9041°

The dashed part of the orbit path shows where the satellite is in the earth's shadow,  

DLR